Other Public Products
Issued by NWS Charleston, SC

Current Version | Previous Version | Graphics & Text | Print | Product List | Glossary On
Versions: 1 2 3 4 5 6 7 8 9 10 11 12 13 14 15 16 17 18 19 20 21 22 23 24 25 26 27 28 29 30 31 32 33 34 35 36 37 38 39 40 41 42 43 44 45 46 47 48 49 50
159 FPUS82 KCHS 231012 OPUCHS TEST...KCHS/KSAV Gateway Observations...TEST National Weather Service Charleston SC 500 AM EST THU NOV 23 2017 NOTE: "fair" indicates few or no clouds below 12,000 feet with no significant weather and/or obstructions to visibility. SCZ050-WAZ558-NCZ071-TXZ119-213-PAZ071-DCZ001-FLZ074-172-MI076- NYZ176-178-MAZ016-IL014-TNZ027-NJZ106-GAZ044-MD014-231100- ...Gateway Observations for Charleston International... CITY SKY/WX TMP DP RH WIND PRES REMARKS Chas Airport MOCLDY 50 37 61 NE13 30.05F Seattle CLOUDY 57 55 93 SW15G23 29.88R Charlotte CLOUDY 36 29 75 NE5 30.13F WCI 32 Dallas DFW CLOUDY 39 29 67 SW3 30.19F Dallas Love PTCLDY 38 32 79 CALM 30.21F Philladelphia CLEAR 32 18 56 NW6 30.15R WCI 26 Wash National PTCLDY 32 23 69 N7 30.19R WCI 26 Baltimore PTCLDY 29 23 78 CALM 30.16S Miami PTCLDY 74 69 85 SE3 29.88F Detroit CLOUDY 30 23 75 S7 30.13F WCI 23 Newark CLEAR 32 18 56 NW10 30.09S WCI 24 Laguardia CLEAR 34 22 61 NW14 30.08S WCI 25 J F K CLEAR 32 20 61 NW14 30.09S WCI 22 Boston Logan CLEAR 33 22 63 W6 30.01R WCI 28 Ft. Lauderdale PTCLDY 73 71 93 SE6 29.87F Chicago O`Hare CLOUDY 33 19 56 S13 30.06F WCI 24 Chicago Midway CLOUDY 33 20 58 SW10 30.08F WCI 25 Houston Bush CLEAR 45 36 70 N5 30.19S Houston Hobby CLEAR 45 38 76 N8 30.18S Nashville CLEAR 27 23 85 CALM 30.17F Atlanta PTCLDY 43 35 73 E8 30.05F $$ GAZ044-118-TXZ119-213-NCZ071-DCZ001-MDZ014-506-PAZ021-071-NJZ106- NYZ176-178-MAZ106-OHZ011-021-055-MIZ076-KYZ091-ILZ014-INZ047- MNZ060-ONZ431-231100- ...Gateway Observations for Savannah International... CITY SKY/WX TMP DP RH WIND PRES REMARKS Savannah Arpt CLOUDY 56 44 64 NE8 30.02F Atlanta PTCLDY 43 35 73 E8 30.05F Charlotte CLOUDY 36 29 75 NE5 30.13F WCI 32 Dallas DFW CLOUDY 39 29 67 SW3 30.19F Houston Bush CLEAR 45 36 70 N5 30.19S Wash National PTCLDY 32 23 69 N7 30.19R WCI 26 Wash Dulles CLOUDY 27 21 78 W3 30.17S Baltimore PTCLDY 29 23 78 CALM 30.16S Philadelphia CLEAR 32 18 56 NW6 30.15R WCI 26 Newark CLEAR 32 18 56 NW10 30.09S WCI 24 Laguardia CLEAR 34 22 61 NW14 30.08S WCI 25 J F K CLEAR 32 20 61 NW14 30.09S WCI 22 Boston CLEAR 33 22 63 W6 30.01R WCI 28 Pittsburg CLOUDY 24 20 84 CALM 30.16F Akron PTCLDY 25 17 72 CALM 30.16F Cleveland CLOUDY 28 19 69 S6 30.19F WCI 22 Cincinnati MOCLDY 24 23 96 CALM 30.18F Columbus PTCLDY 22 20 95 CALM 30.20S Detroit CLOUDY 30 23 75 S7 30.13F WCI 23 Chicago O`Hare CLOUDY 33 19 56 S13 30.06F WCI 24 Minneapolis MOCLDY 26 19 74 CALM 29.93F Indianapolis CLOUDY 30 25 81 S6 30.17F WCI 24 Toronto Canada MOCLDY 30 19 64 SW12 30.11F WCI 21 $$

USA.gov is the U.S. government's official web portal to all federal, state and local government web resources and services.